Location: Arroyo de San Miguel
(40.9167°N, 4.6667°W)
Time: 01:29:38
(UTC+00:00)

Intercosmos 25 Rocket - Pass Details

Date: 19 May 2025
Orbit: 436 x 2959 km, 82.6° (Epoch: 24 June)

Event Time Altitude Azimuth Distance (km) Brightness Sun altitude
Exits shadow 22:41:23 68° 144° (SE) 927 4.1 -25.3°
Maximum altitude 22:41:58 76° 94° (E) 925 4.2 -25.4°
Drops below altitude 10° 22:49:34 10° 10° (N) 3,440 8.1 -25.9°
Sets 22:53:14 0° 10° (N) 4,834 9.0 -26.2°
